Showing default

NINGXIA-1 2, 44780

Orbit data source: Space-Track

NINGXIA-1 2, 44780 is a Chinese payload satellite in LEO that was launched on Wed, 13 Nov 2019 UTC via a CHANG ZHENG 6 launch vehicle from the Taiyaun Space Center, China (TSC). Payload-class satellites include a variety of spacecraft equipped with specific instruments for various scientific and technological missions. These include communications satellites like Starlink; space stations such as the ISS; scientific satellites like the Hubble; Earth observation satellites from companies like Planet Labs, Umbra, and HawkEye 360; GPS; miniature CubeSats for education and research; and military/defense satellites.

Loading next visibility...
Identifier
44780, 2019-076B
Orbit
LEO
Last TLE update
10 hours ago
Origin
Manufacturer
DFH
Mission
Operational Commercial Sigint
Bus & Motor
NX-1, Unknown motor
Mass
~100 kg wet, ~100 kg dry
Launch date (UTC)
2019-11-13 (6 years ago)
Launch vehicle
CHANG ZHENG 6
Launch site
Taiyaun Space Center, China (TSC)
Object type
Payload
Rocket body
Debris
Shape & HBR
Box + 2 Pan, Unknown HBR
Radar Cross Section
0.166 m², Medium (>0.1 m² and < 1m²)

Expand to show TLE details & history

TLE from 10 hours ago
0 NINGXIA-1 2
1 44780U 19076B   25187.55752641 -.00000107  00000-0  14697-4 0  9994
2 44780  45.0098 284.5996 0007191 305.4076  54.6086 14.01945640289357
Epoch: 2025-07-06T13:22Z
TLE epoch observation values (Epoch: 2025-07-06T13:22:50.281Z)
Latitude
-0.00004°
Longitude
159.11055°
Altitude
884.042 km
Speed
7.413 km/s
True Right ascension
18h 58m 23s
True Declination
0° 00' 00"
Sunlit
Object was in full shadow at epoch
Visualization orbit readout
Latitude
-24.55251°
Longitude
4.3458°
Altitude
893.449 km
Speed
7.406 km/s
Apparent Right ascension
05h 30m 57s
Apparent Declination
-61° 47' 25"
Sunlit
Object is in daylight
Visualization observer readout
Local Sidereal Time
10:57:39
Azimuth
213.015° SW
Elevation
-30.86°
Doppler factor
1
Orbital elements
Apogee altitude
893.81 km
Perigee altitude
883.359 km
Semi-major axis
7,266.721 km
Eccentricity
0.00072
Inclination
45.0098°
RAAN
284.5996°
Arg. of periapsis
305.4076°
True anomaly
Unknown
Mean anomaly
54.6086°
Eccentric anomaly
Unknown
Mean motion
3.50377 °/min
Orbital period
102.75 mins
BSTAR
0.000014697
Loading maneuver chart data...
Loading SW <> Apogee altitude chart data...
Loading historical data...
Loading historical data...
Loading historical data...
Loading historical data...
Loading historical data...
Loading historical data...
Loading historical data...
Other satellites on launch #76 in the year 2019 (2019-11-13 UTC)

NINGXIA-1 2 Visibility forecast

Observer location: undefined°, undefined°

Span
Click to sort rows by Start time (UTC) header in descending order
Start Az.
Max El. time (UTC)
Max El. Az.
Max El.
End time (UTC)
End Az.
8 mins2025-07-07 08:20:26.378Z184.491° SSW2025-07-07 08:24:26.378Z138.129° SSE22.133°2025-07-07 08:28:26.378Z90.574° ESE
10 mins2025-07-07 10:07:26.378Z238.245° WSW2025-07-07 10:12:26.378Z103.086° ESE44.034°2025-07-07 10:17:26.378Z67.782° E
9 mins2025-07-07 11:56:26.378Z281.552° WNW2025-07-07 12:00:26.378Z355.419° N39.446°2025-07-07 12:05:26.378Z68.43° E
10 mins2025-07-07 13:44:26.378Z295.621° NW2025-07-07 13:49:26.378Z33.613° NE41.049°2025-07-07 13:54:26.378Z93.087° ESE
10 mins2025-07-07 15:32:26.378Z287.057° WNW2025-07-07 15:37:26.378Z199.606° SSW40.507°2025-07-07 15:42:26.378Z135.366° SSE
5 mins2025-07-07 17:22:26.378Z248.728° W2025-07-07 17:24:26.378Z226.786° WSW14.796°2025-07-07 17:27:26.378Z195.736° SSW
|